Plymouth, NH

12:01 PM EDT on July 24, 2017 (GMT -0400)
Plymouth

Weather History for K1P1 - May, 2013

Change the Weather History Date:

Wednesday, May 8, 2013

  Actual Average (KLCI) Record (KLCI)
Temperature  
Mean Temperature 58 °F -  
Max Temperature 74 °F 65 °F 82 °F (2007)
Min Temperature 43 °F 40 °F 32 °F (1987)
Degree Days  
Heating Degree Days 6    
Growing Degree Days 8 (Base 50)    
Moisture  
Dew Point 52 °F    
Average Humidity 78    
Maximum Humidity 98    
Minimum Humidity 43    
Precipitation  
Precipitation 0.18 in - - ()
Sea Level Pressure  
Sea Level Pressure 30.15 in    
Wind  
Wind Speed 2 mph (ESE)    
Max Wind Speed 14 mph    
Max Gust Speed 18 mph    
Visibility 9 miles    
Events Rain    
Averages and records for this station are not official NWS values.
T = Trace of Precipitation, MM = Missing Value Source: NWS Daily Summary

Daily Weather History Graph

Daily Weather History Graph

Search for Another Location

Airport or City:

Trip Planner

Search our weather history database for the weather conditions in past years. The results will help you decide how hot, cold, wet, or windy it might be!

Date:

Astronomy

May. 08, 2013 Rise Set
Actual Time 5:29 AM EDT 7:58 PM EDT
Civil Twilight 4:57 AM EDT 8:30 PM EDT
Nautical Twilight 4:16 AM EDT 9:11 PM EDT
Astronomical Twilight 3:31 AM EDT 9:57 PM EDT
Moon 4:38 AM EDT (5/8) 6:51 PM EDT (5/8)
Length of Visible Light 15h 33m
Length of Day
14h 28m
Waning Crescent, 2% of the Moon is Illuminated
May 8
Waning Crescent
May 9
New
May 18
First Quarter
May 25
Full
May 31
Last Quarter

Hourly Weather History & Observations

Time (EDT) Temp. Dew Point Humidity Pressure Visibility Wind Dir Wind Speed Gust Speed Precip Events Conditions
12:15 AM 51.8 °F 43.9 °F 74% 30.15 in 10.0 mi Calm Calm - N/A   Clear
12:35 AM 50.5 °F 43.7 °F 77% 30.16 in 10.0 mi Calm Calm - N/A   Clear
12:55 AM 49.8 °F 44.4 °F 82% 30.15 in 10.0 mi Calm Calm - N/A   Clear
1:15 AM 49.1 °F 44.6 °F 84% 30.15 in 10.0 mi Calm Calm - N/A   Clear
1:35 AM 48.6 °F 44.6 °F 86% 30.15 in 10.0 mi Calm Calm - N/A   Clear
1:55 AM 47.7 °F 43.9 °F 87% 30.15 in 10.0 mi Calm Calm - N/A   Clear
2:15 AM 47.3 °F 44.1 °F 88% 30.15 in 10.0 mi Calm Calm - N/A   Clear
2:35 AM 46.4 °F 44.2 °F 92% 30.15 in 10.0 mi Calm Calm - N/A   Clear
2:55 AM 46.6 °F 44.6 °F 93% 30.15 in 10.0 mi Calm Calm - N/A   Clear
3:15 AM 45.5 °F 44.2 °F 95% 30.16 in 10.0 mi Calm Calm - N/A   Clear
3:35 AM 45.5 °F 44.2 °F 95% 30.16 in 10.0 mi Calm Calm - N/A   Clear
3:55 AM 44.6 °F 43.3 °F 95% 30.16 in 10.0 mi Calm Calm - N/A   Clear
4:15 AM 45.0 °F 44.1 °F 97% 30.16 in 10.0 mi Calm Calm - N/A   Clear
4:35 AM 44.6 °F 43.9 °F 97% 30.16 in 4.0 mi Calm Calm - N/A   Clear
4:55 AM 44.4 °F 43.7 °F 97% 30.17 in 5.0 mi Calm Calm - N/A   Clear
5:15 AM 43.5 °F 43.0 °F 98% 30.17 in 5.0 mi Calm Calm - N/A   Clear
5:35 AM 43.5 °F 42.8 °F 97% 30.17 in 4.0 mi Calm Calm - N/A   Clear
5:55 AM 43.7 °F 43.0 °F 97% 30.17 in 1.2 mi Calm Calm - N/A   Mist
6:15 AM 43.9 °F 43.3 °F 98% 30.19 in 7.0 mi Calm Calm - N/A   Clear
6:55 AM 46.9 °F 46.4 °F 98% 30.20 in 10.0 mi Calm Calm - N/A   Clear
7:15 AM 49.3 °F 48.2 °F 96% 30.21 in 10.0 mi Calm Calm - N/A   Clear
7:35 AM 51.6 °F 48.4 °F 89% 30.21 in 10.0 mi Calm Calm - N/A   Clear
7:55 AM 54.7 °F 48.9 °F 81% 30.20 in 10.0 mi Calm Calm - N/A   Clear
8:15 AM 57.6 °F 50.2 °F 76% 30.21 in 10.0 mi Calm Calm - N/A   Clear
8:35 AM 59.9 °F 51.4 °F 74% 30.21 in 10.0 mi East 3.5 mph - N/A   Clear
8:55 AM 62.4 °F 52.3 °F 70% 30.21 in 10.0 mi East 3.5 mph - N/A   Clear
9:15 AM 65.3 °F 54.1 °F 67% 30.21 in 10.0 mi ESE 4.6 mph - N/A   Clear
9:35 AM 66.7 °F 53.6 °F 63% 30.20 in 10.0 mi NE 3.5 mph - N/A   Clear
9:55 AM 68.0 °F 54.0 °F 61% 30.20 in 10.0 mi Calm Calm - N/A   Clear
10:15 AM 69.1 °F 54.5 °F 60% 30.19 in 10.0 mi NE 8.1 mph - N/A   Scattered Clouds
10:35 AM 69.3 °F 53.4 °F 57% 30.18 in 10.0 mi Calm Calm - N/A   Mostly Cloudy
10:55 AM 71.1 °F 55.0 °F 57% 30.18 in 10.0 mi Calm Calm - N/A   Mostly Cloudy
11:15 AM 72.5 °F 53.6 °F 51% 30.17 in 10.0 mi ENE 13.8 mph 17.3 mph N/A   Mostly Cloudy
11:35 AM 73.2 °F 51.8 °F 47% 30.17 in 10.0 mi ESE 8.1 mph - N/A   Mostly Cloudy
11:55 AM 74.8 °F 51.1 °F 43% 30.16 in 10.0 mi SE 6.9 mph - N/A   Scattered Clouds
12:15 PM 74.3 °F 51.3 °F 44% 30.15 in 10.0 mi East 8.1 mph - N/A   Scattered Clouds
12:35 PM 72.5 °F 51.4 °F 47% 30.15 in 10.0 mi ESE 8.1 mph - N/A   Overcast
12:55 PM 66.9 °F 56.1 °F 68% 30.17 in 7.0 mi SE 4.6 mph - N/A Rain Light Rain
1:15 PM 68.2 °F 57.6 °F 69% 30.16 in 10.0 mi SSW 3.5 mph - N/A   Mostly Cloudy
1:35 PM 69.8 °F 56.3 °F 62% 30.15 in 10.0 mi South 3.5 mph - N/A   Mostly Cloudy
1:55 PM 70.2 °F 56.8 °F 63% 30.16 in 10.0 mi SSE 3.5 mph - N/A   Overcast
2:15 PM 64.8 °F 59.5 °F 83% 30.15 in 3.0 mi Calm Calm - 0.06 in Rain Light Rain
2:35 PM 65.5 °F 60.4 °F 84% 30.15 in 4.0 mi SE 4.6 mph - 0.10 in Rain Heavy Rain
2:55 PM 66.6 °F 61.5 °F 84% 30.14 in 10.0 mi NNE 3.5 mph - 0.12 in   Overcast
3:15 PM 67.6 °F 61.7 °F 81% 30.12 in 10.0 mi Calm Calm - N/A   Mostly Cloudy
3:35 PM 69.6 °F 61.0 °F 74% 30.11 in 10.0 mi Calm Calm - N/A   Mostly Cloudy
3:55 PM 69.3 °F 60.8 °F 74% 30.11 in 10.0 mi SE 3.5 mph - N/A   Overcast
4:15 PM 69.8 °F 57.2 °F 64% 30.11 in 10.0 mi SE 5.8 mph - N/A   Overcast
4:35 PM 70.0 °F 57.0 °F 63% 30.11 in 10.0 mi SE 4.6 mph - N/A   Overcast
4:55 PM 72.5 °F 54.5 °F 53% 30.10 in 10.0 mi SE 8.1 mph - N/A   Overcast
5:15 PM 70.7 °F 52.9 °F 53% 30.11 in 10.0 mi ESE 9.2 mph 18.4 mph N/A   Mostly Cloudy
5:35 PM 69.8 °F 53.4 °F 56% 30.11 in 10.0 mi ESE 6.9 mph 18.4 mph N/A   Scattered Clouds
5:55 PM 68.7 °F 54.5 °F 60% 30.11 in 10.0 mi East 9.2 mph 16.1 mph N/A   Mostly Cloudy
6:15 PM 67.6 °F 54.9 °F 64% 30.10 in 10.0 mi East 6.9 mph 16.1 mph N/A   Overcast
6:35 PM 66.7 °F 56.1 °F 69% 30.11 in 10.0 mi ESE 8.1 mph - N/A Rain Light Rain
6:55 PM 65.1 °F 56.7 °F 74% 30.11 in 7.0 mi SE 6.9 mph - N/A Rain Light Rain
7:15 PM 62.4 °F 58.1 °F 86% 30.12 in 7.0 mi SE 5.8 mph - N/A   Drizzle
7:35 PM 61.5 °F 58.1 °F 89% 30.12 in 5.0 mi East 8.1 mph - 0.04 in Rain Light Rain
7:55 PM 60.8 °F 58.5 °F 92% 30.12 in 10.0 mi East 4.6 mph - 0.05 in   Overcast
8:15 PM 60.8 °F 59.0 °F 94% 30.11 in 10.0 mi East 4.6 mph - N/A   Overcast
8:35 PM 60.8 °F 59.0 °F 94% 30.11 in 10.0 mi East 3.5 mph - N/A   Overcast
8:55 PM 60.8 °F 59.0 °F 94% 30.11 in 10.0 mi ENE 5.8 mph - N/A   Overcast
9:15 PM 60.8 °F 59.0 °F 94% 30.11 in 10.0 mi East 5.8 mph - N/A   Overcast
9:35 PM 60.8 °F 58.6 °F 93% 30.11 in 10.0 mi East 6.9 mph - N/A   Overcast
9:55 PM 61.0 °F 58.5 °F 91% 30.11 in 10.0 mi East 8.1 mph - N/A   Overcast
10:15 PM 61.0 °F 58.5 °F 91% 30.11 in 10.0 mi Calm Calm - N/A   Overcast
10:35 PM 61.0 °F 58.5 °F 91% 30.10 in 10.0 mi East 4.6 mph - N/A   Overcast
10:55 PM 60.8 °F 58.3 °F 91% 30.09 in 10.0 mi ESE 3.5 mph - N/A   Overcast
11:15 PM 60.8 °F 58.3 °F 91% 30.09 in 10.0 mi ESE 3.5 mph - N/A   Overcast
11:35 PM 60.8 °F 58.3 °F 91% 30.08 in 4.0 mi Calm Calm - 0.01 in Rain Light Rain